Time,TemperatureF,DewpointF,PressureIn,WindDirection,WindDirectionDegrees,WindSpeedMPH,WindSpeedGustMPH,Humidity,HourlyPrecipIn,Conditions,Clouds,dailyrainin,SoftwareType,DateUTC
2013-05-07 00:02:00,39.0,33.0,-100.00,West,275,5.0,9.0,78,-99.99,,,-99.99,,2013-05-07 06:02:00,
2013-05-07 00:12:00,39.0,33.0,-100.00,West,267,5.0,9.0,79,-99.99,,,-99.99,,2013-05-07 06:12:00,
2013-05-07 00:22:00,39.0,33.0,-100.00,West,267,5.0,9.0,79,-99.99,,,-99.99,,2013-05-07 06:22:00,
2013-05-07 00:32:00,39.0,33.0,-100.00,West,267,5.0,9.0,79,-99.99,,,-99.99,,2013-05-07 06:32:00,
2013-05-07 00:41:00,37.0,34.0,-100.00,SSW,198,6.0,10.0,87,-99.99,,,-99.99,,2013-05-07 06:41:00,
2013-05-07 00:52:00,37.0,34.0,-100.00,SSW,198,6.0,10.0,87,-99.99,,,-99.99,,2013-05-07 06:52:00,
2013-05-07 01:02:00,37.0,34.0,-100.00,SSW,199,7.0,11.0,91,-99.99,,,-99.99,,2013-05-07 07:02:00,
2013-05-07 01:11:00,36.0,35.0,-100.00,South,191,6.0,11.0,93,-99.99,,,-99.99,,2013-05-07 07:11:00,
2013-05-07 01:22:00,36.0,35.0,-100.00,South,191,6.0,11.0,93,-99.99,,,-99.99,,2013-05-07 07:22:00,
2013-05-07 01:31:00,36.0,35.0,-100.00,South,191,6.0,11.0,93,-99.99,,,-99.99,,2013-05-07 07:31:00,
2013-05-07 01:42:00,36.0,34.0,-100.00,SW,220,3.0,8.0,90,-99.99,,,-99.99,,2013-05-07 07:42:00,
2013-05-07 01:52:00,36.0,34.0,-100.00,SW,220,3.0,8.0,90,-99.99,,,-99.99,,2013-05-07 07:52:00,
2013-05-07 02:02:00,36.0,35.0,-100.00,North,2,1.0,3.0,95,-99.99,,,-99.99,,2013-05-07 08:02:00,
2013-05-07 02:11:00,36.0,35.0,-100.00,North,356,1.0,3.0,97,-99.99,,,-99.99,,2013-05-07 08:11:00,
2013-05-07 02:21:00,36.0,35.0,-100.00,North,356,1.0,3.0,97,-99.99,,,-99.99,,2013-05-07 08:21:00,
2013-05-07 02:31:00,36.0,35.0,-100.00,North,356,1.0,3.0,97,-99.99,,,-99.99,,2013-05-07 08:31:00,
2013-05-07 02:41:00,36.0,36.0,-100.00,NNE,30,1.0,2.0,98,-99.99,,,-99.99,,2013-05-07 08:41:00,
2013-05-07 02:52:00,36.0,36.0,-100.00,NNE,30,1.0,2.0,98,-99.99,,,-99.99,,2013-05-07 08:52:00,
2013-05-07 03:01:00,36.0,36.0,-100.00,NW,316,0.0,2.0,97,-99.99,,,-99.99,,2013-05-07 09:01:00,
2013-05-07 03:11:00,36.0,35.0,-100.00,SW,221,0.0,2.0,97,-99.99,,,-99.99,,2013-05-07 09:11:00,
2013-05-07 03:22:00,36.0,35.0,-100.00,SW,221,0.0,2.0,97,-99.99,,,-99.99,,2013-05-07 09:22:00,
2013-05-07 03:33:00,36.0,35.0,-100.00,SW,221,0.0,2.0,97,-99.99,,,-99.99,,2013-05-07 09:33:00,
2013-05-07 03:42:00,35.0,34.0,-100.00,SSW,202,5.0,10.0,95,-99.99,,,-99.99,,2013-05-07 09:42:00,
2013-05-07 03:52:00,35.0,34.0,-100.00,SSW,202,5.0,10.0,95,-99.99,,,-99.99,,2013-05-07 09:52:00,
2013-05-07 04:02:00,35.0,33.0,-100.00,SW,223,4.0,8.0,93,-99.99,,,-99.99,,2013-05-07 10:02:00,
2013-05-07 04:12:00,35.0,33.0,-100.00,South,186,5.0,12.0,94,-99.99,,,-99.99,,2013-05-07 10:12:00,
2013-05-07 04:22:00,35.0,33.0,-100.00,South,186,5.0,12.0,94,-99.99,,,-99.99,,2013-05-07 10:22:00,
2013-05-07 04:32:00,35.0,33.0,-100.00,South,186,5.0,12.0,94,-99.99,,,-99.99,,2013-05-07 10:32:00,
2013-05-07 04:42:00,34.0,33.0,-100.00,South,177,5.0,9.0,94,-99.99,,,-99.99,,2013-05-07 10:42:00,
2013-05-07 04:52:00,34.0,33.0,-100.00,South,177,5.0,9.0,94,-99.99,,,-99.99,,2013-05-07 10:52:00,
2013-05-07 05:02:00,34.0,33.0,-100.00,South,173,6.0,10.0,95,-99.99,,,-99.99,,2013-05-07 11:02:00,
2013-05-07 05:11:00,34.0,33.0,-100.00,SSW,192,8.0,14.0,95,-99.99,,,-99.99,,2013-05-07 11:11:00,
2013-05-07 05:21:00,34.0,33.0,-100.00,SSW,192,8.0,14.0,95,-99.99,,,-99.99,,2013-05-07 11:21:00,
2013-05-07 05:32:00,34.0,33.0,-100.00,SSW,192,8.0,14.0,95,-99.99,,,-99.99,,2013-05-07 11:32:00,
2013-05-07 05:42:00,34.0,32.0,-100.00,South,179,5.0,10.0,92,-99.99,,,-99.99,,2013-05-07 11:42:00,
2013-05-07 05:52:00,34.0,32.0,-100.00,South,179,5.0,10.0,92,-99.99,,,-99.99,,2013-05-07 11:52:00,
2013-05-07 06:02:00,34.0,32.0,-100.00,South,177,5.0,9.0,94,-99.99,,,-99.99,,2013-05-07 12:02:00,
2013-05-07 06:11:00,34.0,32.0,-100.00,South,187,6.0,12.0,95,-99.99,,,-99.99,,2013-05-07 12:11:00,
2013-05-07 06:21:00,34.0,32.0,-100.00,South,187,6.0,12.0,95,-99.99,,,-99.99,,2013-05-07 12:21:00,
2013-05-07 06:32:00,34.0,32.0,-100.00,South,187,6.0,12.0,95,-99.99,,,-99.99,,2013-05-07 12:32:00,
2013-05-07 06:41:00,34.0,32.0,-100.00,SW,215,5.0,10.0,91,-99.99,,,-99.99,,2013-05-07 12:41:00,
2013-05-07 06:52:00,34.0,32.0,-100.00,SW,215,5.0,10.0,91,-99.99,,,-99.99,,2013-05-07 12:52:00,
2013-05-07 07:02:00,34.0,32.0,-100.00,SW,215,5.0,10.0,91,-99.99,,,-99.99,,2013-05-07 13:02:00,
2013-05-07 07:11:00,34.0,33.0,-100.00,SSW,192,6.0,13.0,94,-99.99,,,-99.99,,2013-05-07 13:11:00,
2013-05-07 07:21:00,34.0,33.0,-100.00,SSW,192,6.0,13.0,94,-99.99,,,-99.99,,2013-05-07 13:21:00,
2013-05-07 07:32:00,34.0,33.0,-100.00,SSW,192,6.0,13.0,94,-99.99,,,-99.99,,2013-05-07 13:32:00,
2013-05-07 07:42:00,34.0,33.0,-100.00,SSW,192,6.0,13.0,94,-99.99,,,-99.99,,2013-05-07 13:42:00,
2013-05-07 08:02:00,35.0,33.0,-100.00,South,181,8.0,14.0,90,-99.99,,,-99.99,,2013-05-07 14:02:00,
2013-05-07 08:11:00,36.0,33.0,-100.00,South,179,6.0,11.0,89,-99.99,,,-99.99,,2013-05-07 14:11:00,
2013-05-07 08:21:00,36.0,33.0,-100.00,South,179,6.0,11.0,89,-99.99,,,-99.99,,2013-05-07 14:21:00,
2013-05-07 08:31:00,36.0,33.0,-100.00,South,179,6.0,11.0,89,-99.99,,,-99.99,,2013-05-07 14:31:00,
2013-05-07 08:42:00,38.0,33.0,-100.00,SSE,162,3.0,9.0,79,-99.99,,,-99.99,,2013-05-07 14:42:00,
2013-05-07 08:52:00,38.0,33.0,-100.00,SSE,162,3.0,9.0,79,-99.99,,,-99.99,,2013-05-07 14:52:00,
2013-05-07 09:01:00,39.0,33.0,-100.00,South,176,4.0,10.0,77,-99.99,,,-99.99,,2013-05-07 15:01:00,
2013-05-07 09:12:00,39.0,33.0,-100.00,South,170,4.0,13.0,76,-99.99,,,-99.99,,2013-05-07 15:12:00,
2013-05-07 09:21:00,39.0,33.0,-100.00,South,170,4.0,13.0,76,-99.99,,,-99.99,,2013-05-07 15:21:00,
2013-05-07 09:33:00,39.0,33.0,-100.00,South,170,4.0,13.0,76,-99.99,,,-99.99,,2013-05-07 15:33:00,
2013-05-07 09:42:00,41.0,33.0,-100.00,South,179,3.0,10.0,72,-99.99,,,-99.99,,2013-05-07 15:42:00,
2013-05-07 09:53:00,41.0,33.0,-100.00,South,179,3.0,10.0,72,-99.99,,,-99.99,,2013-05-07 15:53:00,
2013-05-07 10:03:00,41.0,33.0,-100.00,South,179,3.0,10.0,72,-99.99,,,-99.99,,2013-05-07 16:03:00,
2013-05-07 10:12:00,41.0,33.0,-100.00,South,179,3.0,10.0,72,-99.99,,,-99.99,,2013-05-07 16:12:00,
2013-05-07 10:42:00,42.0,32.0,-100.00,SW,218,2.0,6.0,68,-99.99,,,-99.99,,2013-05-07 16:42:00,
2013-05-07 10:52:00,42.0,32.0,-100.00,SW,218,2.0,6.0,68,-99.99,,,-99.99,,2013-05-07 16:52:00,
2013-05-07 11:01:00,42.0,32.0,-100.00,SW,218,2.0,6.0,68,-99.99,,,-99.99,,2013-05-07 17:01:00,
2013-05-07 11:12:00,42.0,32.0,-100.00,SW,218,2.0,6.0,68,-99.99,,,-99.99,,2013-05-07 17:12:00,
2013-05-07 12:42:00,42.0,29.0,-100.00,SW,231,6.0,10.0,60,-99.99,,,-99.99,,2013-05-07 18:42:00,
2013-05-07 12:52:00,42.0,29.0,-100.00,SW,231,6.0,10.0,60,-99.99,,,-99.99,,2013-05-07 18:52:00,
2013-05-07 13:02:00,44.0,29.0,-100.00,WSW,244,5.0,11.0,55,-99.99,,,-99.99,,2013-05-07 19:02:00,
2013-05-07 13:11:00,45.0,28.0,-100.00,SW,226,2.0,6.0,51,-99.99,,,-99.99,,2013-05-07 19:11:00,
2013-05-07 13:21:00,45.0,28.0,-100.00,SW,226,2.0,6.0,51,-99.99,,,-99.99,,2013-05-07 19:21:00,
2013-05-07 13:31:00,45.0,28.0,-100.00,SW,226,2.0,6.0,51,-99.99,,,-99.99,,2013-05-07 19:31:00,
2013-05-07 13:41:00,45.0,27.0,-100.00,West,260,4.0,9.0,48,-99.99,,,-99.99,,2013-05-07 19:41:00,
2013-05-07 13:52:00,45.0,27.0,-100.00,West,260,4.0,9.0,48,-99.99,,,-99.99,,2013-05-07 19:52:00,
2013-05-07 14:02:00,47.0,28.0,-100.00,West,274,2.0,5.0,46,-99.99,,,-99.99,,2013-05-07 20:02:00,
2013-05-07 14:11:00,47.0,27.0,-100.00,WNW,293,3.0,6.0,45,-99.99,,,-99.99,,2013-05-07 20:11:00,
2013-05-07 14:21:00,47.0,27.0,-100.00,WNW,293,3.0,6.0,45,-99.99,,,-99.99,,2013-05-07 20:21:00,
2013-05-07 14:32:00,47.0,27.0,-100.00,WNW,293,3.0,6.0,45,-99.99,,,-99.99,,2013-05-07 20:32:00,
2013-05-07 14:41:00,42.0,31.0,-100.00,WSW,258,12.0,25.0,64,-99.99,,,-99.99,,2013-05-07 20:41:00,
2013-05-07 14:52:00,42.0,31.0,-100.00,WSW,258,12.0,25.0,64,-99.99,,,-99.99,,2013-05-07 20:52:00,
2013-05-07 15:01:00,43.0,31.0,-100.00,West,274,9.0,18.0,62,-99.99,,,-99.99,,2013-05-07 21:01:00,
2013-05-07 15:11:00,45.0,31.0,-100.00,WSW,251,5.0,12.0,58,-99.99,,,-99.99,,2013-05-07 21:11:00,
2013-05-07 15:21:00,45.0,31.0,-100.00,WSW,251,5.0,12.0,58,-99.99,,,-99.99,,2013-05-07 21:21:00,
2013-05-07 15:32:00,45.0,31.0,-100.00,WSW,251,5.0,12.0,58,-99.99,,,-99.99,,2013-05-07 21:32:00,
2013-05-07 15:42:00,49.0,30.0,-100.00,SW,215,3.0,11.0,48,-99.99,,,-99.99,,2013-05-07 21:42:00,
2013-05-07 15:53:00,49.0,30.0,-100.00,SW,215,3.0,11.0,48,-99.99,,,-99.99,,2013-05-07 21:53:00,
2013-05-07 16:02:00,49.0,30.0,-100.00,SW,215,3.0,11.0,48,-99.99,,,-99.99,,2013-05-07 22:02:00,
2013-05-07 16:13:00,49.0,30.0,-100.00,SW,215,3.0,11.0,48,-99.99,,,-99.99,,2013-05-07 22:13:00,